Date Hour Ending, MW ,,,,,,,,,,,,,,,,,
11/01/2016 1:00,341,,,,,,,,,,,,,,,,,
11/01/2016 2:00,329,,,,,,,,,,,,,,,,,
11/01/2016 3:00,299,,,,,,,,,,,,,,,,,
11/01/2016 4:00,286,,,,,,,,,,,,,,,,,
11/01/2016 5:00,302,,,,,,,,,,,,,,,,,
11/01/2016 6:00,346,,,,,,,,,,,,,,,,,
11/01/2016 7:00,431,,,,,,,,,,,,,,,,,
11/01/2016 8:00,525,,,,,,,,,,,,,,,,,
11/01/2016 9:00,559,,,,,,,,,,,,,,,,,
11/01/2016 10:00,584,,,,,,,,,,,,,,,,,
11/01/2016 11:00,582,,,,,,,,,,,,,,,,,
11/01/2016 12:00,581,,,,,,,,,,,,,,,,,
11/01/2016 13:00,578,,,,,,,,,,,,,,,,,
11/01/2016 14:00,567,,,,,,,,,,,,,,,,,
11/01/2016 15:00,541,,,,,,,,,,,,,,,,,
11/01/2016 16:00,553,,,,,,,,,,,,,,,,,
11/01/2016 17:00,585,,,,,,,,,,,,,,,,,
11/01/2016 18:00,608,,,,,,,,,,,,,,,,,
11/01/2016 19:00,628,,,,,,,,,,,,,,,,,
11/01/2016 20:00,619,,,,,,,,,,,,,,,,,
11/01/2016 21:00,595,,,,,,,,,,,,,,,,,
11/01/2016 22:00,570,,,,,,,,,,,,,,,,,
11/01/2016 23:00,516,,,,,,,,,,,,,,,,,
11/02/2016 0:00,477,,,,,,,,,,,,,,,,,
11/02/2016 1:00,451,,,,,,,,,,,,,,,,,
11/02/2016 2:00,425,,,,,,,,,,,,,,,,,
11/02/2016 3:00,401,,,,,,,,,,,,,,,,,
11/02/2016 4:00,398,,,,,,,,,,,,,,,,,
11/02/2016 5:00,405,,,,,,,,,,,,,,,,,
11/02/2016 6:00,437,,,,,,,,,,,,,,,,,
11/02/2016 7:00,514,,,,,,,,,,,,,,,,,
11/02/2016 8:00,599,,,,,,,,,,,,,,,,,
11/02/2016 9:00,587,,,,,,,,,,,,,,,,,
11/02/2016 10:00,591,,,,,,,,,,,,,,,,,
11/02/2016 11:00,587,,,,,,,,,,,,,,,,,
11/02/2016 12:00,574,,,,,,,,,,,,,,,,,
11/02/2016 13:00,572,,,,,,,,,,,,,,,,,
11/02/2016 14:00,564,,,,,,,,,,,,,,,,,
11/02/2016 15:00,544,,,,,,,,,,,,,,,,,
11/02/2016 16:00,543,,,,,,,,,,,,,,,,,
11/02/2016 17:00,579,,,,,,,,,,,,,,,,,
11/02/2016 18:00,617,,,,,,,,,,,,,,,,,
11/02/2016 19:00,636,,,,,,,,,,,,,,,,,
11/02/2016 20:00,618,,,,,,,,,,,,,,,,,
11/02/2016 21:00,586,,,,,,,,,,,,,,,,,
11/02/2016 22:00,561,,,,,,,,,,,,,,,,,
11/02/2016 23:00,487,,,,,,,,,,,,,,,,,
11/03/2016 0:00,420,,,,,,,,,,,,,,,,,
11/03/2016 1:00,389,,,,,,,,,,,,,,,,,
11/03/2016 2:00,347,,,,,,,,,,,,,,,,,
11/03/2016 3:00,323,,,,,,,,,,,,,,,,,
11/03/2016 4:00,313,,,,,,,,,,,,,,,,,
11/03/2016 5:00,317,,,,,,,,,,,,,,,,,
11/03/2016 6:00,349,,,,,,,,,,,,,,,,,
11/03/2016 7:00,442,,,,,,,,,,,,,,,,,
11/03/2016 8:00,523,,,,,,,,,,,,,,,,,
11/03/2016 9:00,563,,,,,,,,,,,,,,,,,
11/03/2016 10:00,558,,,,,,,,,,,,,,,,,
11/03/2016 11:00,586,,,,,,,,,,,,,,,,,
11/03/2016 12:00,595,,,,,,,,,,,,,,,,,
11/03/2016 13:00,588,,,,,,,,,,,,,,,,,
11/03/2016 14:00,583,,,,,,,,,,,,,,,,,
11/03/2016 15:00,537,,,,,,,,,,,,,,,,,
11/03/2016 16:00,473,,,,,,,,,,,,,,,,,
11/03/2016 17:00,461,,,,,,,,,,,,,,,,,
11/03/2016 18:00,521,,,,,,,,,,,,,,,,,
11/03/2016 19:00,537,,,,,,,,,,,,,,,,,
11/03/2016 20:00,566,,,,,,,,,,,,,,,,,
11/03/2016 21:00,564,,,,,,,,,,,,,,,,,
11/03/2016 22:00,576,,,,,,,,,,,,,,,,,
11/03/2016 23:00,521,,,,,,,,,,,,,,,,,
11/04/2016 0:00,466,,,,,,,,,,,,,,,,,
11/04/2016 1:00,431,,,,,,,,,,,,,,,,,
11/04/2016 2:00,398,,,,,,,,,,,,,,,,,
11/04/2016 3:00,378,,,,,,,,,,,,,,,,,
11/04/2016 4:00,376,,,,,,,,,,,,,,,,,
11/04/2016 5:00,380,,,,,,,,,,,,,,,,,
11/04/2016 6:00,402,,,,,,,,,,,,,,,,,
11/04/2016 7:00,492,,,,,,,,,,,,,,,,,
11/04/2016 8:00,524,,,,,,,,,,,,,,,,,
11/04/2016 9:00,533,,,,,,,,,,,,,,,,,
11/04/2016 10:00,549,,,,,,,,,,,,,,,,,
11/04/2016 11:00,546,,,,,,,,,,,,,,,,,
11/04/2016 12:00,504,,,,,,,,,,,,,,,,,
11/04/2016 13:00,512,,,,,,,,,,,,,,,,,
11/04/2016 14:00,487,,,,,,,,,,,,,,,,,
11/04/2016 15:00,471,,,,,,,,,,,,,,,,,
11/04/2016 16:00,475,,,,,,,,,,,,,,,,,
11/04/2016 17:00,500,,,,,,,,,,,,,,,,,
11/04/2016 18:00,535,,,,,,,,,,,,,,,,,
11/04/2016 19:00,574,,,,,,,,,,,,,,,,,
11/04/2016 20:00,511,,,,,,,,,,,,,,,,,
11/04/2016 21:00,475,,,,,,,,,,,,,,,,,
11/04/2016 22:00,476,,,,,,,,,,,,,,,,,
11/04/2016 23:00,416,,,,,,,,,,,,,,,,,
11/05/2016 0:00,394,,,,,,,,,,,,,,,,,
11/05/2016 1:00,386,,,,,,,,,,,,,,,,,
11/05/2016 2:00,386,,,,,,,,,,,,,,,,,
11/05/2016 3:00,381,,,,,,,,,,,,,,,,,
11/05/2016 4:00,380,,,,,,,,,,,,,,,,,
11/05/2016 5:00,401,,,,,,,,,,,,,,,,,
11/05/2016 6:00,435,,,,,,,,,,,,,,,,,
11/05/2016 7:00,458,,,,,,,,,,,,,,,,,
11/05/2016 8:00,536,,,,,,,,,,,,,,,,,
11/05/2016 9:00,595,,,,,,,,,,,,,,,,,
11/05/2016 10:00,621,,,,,,,,,,,,,,,,,
11/05/2016 11:00,624,,,,,,,,,,,,,,,,,
11/05/2016 12:00,609,,,,,,,,,,,,,,,,,
11/05/2016 13:00,597,,,,,,,,,,,,,,,,,
11/05/2016 14:00,584,,,,,,,,,,,,,,,,,
11/05/2016 15:00,564,,,,,,,,,,,,,,,,,
11/05/2016 16:00,578,,,,,,,,,,,,,,,,,
11/05/2016 17:00,603,,,,,,,,,,,,,,,,,
11/05/2016 18:00,639,,,,,,,,,,,,,,,,,
11/05/2016 19:00,683,,,,,,,,,,,,,,,,,
11/05/2016 20:00,673,,,,,,,,,,,,,,,,,
11/05/2016 21:00,620,,,,,,,,,,,,,,,,,
11/05/2016 22:00,568,,,,,,,,,,,,,,,,,
11/05/2016 23:00,519,,,,,,,,,,,,,,,,,
11/06/2016 0:00,477,,,,,,,,,,,,,,,,,
11/06/2016 1:00,453,,,,,,,,,,,,,,,,,
11/06/2016 2:00,424,,,,,,,,,,,,,,,,,
11/06/2016 3:00,424,,,,,,,,,,,,,,,,,
11/06/2016 4:00,441,,,,,,,,,,,,,,,,,
11/06/2016 5:00,446,,,,,,,,,,,,,,,,,
11/06/2016 6:00,452,,,,,,,,,,,,,,,,,
11/06/2016 7:00,472,,,,,,,,,,,,,,,,,
11/06/2016 8:00,496,,,,,,,,,,,,,,,,,
11/06/2016 9:00,531,,,,,,,,,,,,,,,,,
11/06/2016 10:00,573,,,,,,,,,,,,,,,,,
11/06/2016 11:00,600,,,,,,,,,,,,,,,,,
11/06/2016 12:00,614,,,,,,,,,,,,,,,,,
11/06/2016 13:00,604,,,,,,,,,,,,,,,,,
11/06/2016 14:00,584,,,,,,,,,,,,,,,,,
11/06/2016 15:00,553,,,,,,,,,,,,,,,,,
11/06/2016 16:00,572,,,,,,,,,,,,,,,,,
11/06/2016 17:00,577,,,,,,,,,,,,,,,,,
11/06/2016 18:00,619,,,,,,,,,,,,,,,,,
11/06/2016 19:00,637,,,,,,,,,,,,,,,,,
11/06/2016 20:00,583,,,,,,,,,,,,,,,,,
11/06/2016 21:00,554,,,,,,,,,,,,,,,,,
11/06/2016 22:00,497,,,,,,,,,,,,,,,,,
11/06/2016 23:00,429,,,,,,,,,,,,,,,,,
11/07/2016 0:00,393,,,,,,,,,,,,,,,,,
11/07/2016 1:00,353,,,,,,,,,,,,,,,,,
11/07/2016 2:00,305,,,,,,,,,,,,,,,,,
11/07/2016 3:00,308,,,,,,,,,,,,,,,,,
11/07/2016 4:00,305,,,,,,,,,,,,,,,,,
11/07/2016 5:00,316,,,,,,,,,,,,,,,,,
11/07/2016 6:00,343,,,,,,,,,,,,,,,,,
11/07/2016 7:00,396,,,,,,,,,,,,,,,,,
11/07/2016 8:00,500,,,,,,,,,,,,,,,,,
11/07/2016 9:00,582,,,,,,,,,,,,,,,,,
11/07/2016 10:00,596,,,,,,,,,,,,,,,,,
11/07/2016 11:00,601,,,,,,,,,,,,,,,,,
11/07/2016 12:00,609,,,,,,,,,,,,,,,,,
11/07/2016 13:00,622,,,,,,,,,,,,,,,,,
11/07/2016 14:00,600,,,,,,,,,,,,,,,,,
11/07/2016 15:00,583,,,,,,,,,,,,,,,,,
11/07/2016 16:00,573,,,,,,,,,,,,,,,,,
11/07/2016 17:00,587,,,,,,,,,,,,,,,,,
11/07/2016 18:00,608,,,,,,,,,,,,,,,,,
11/07/2016 19:00,676,,,,,,,,,,,,,,,,,
11/07/2016 20:00,665,,,,,,,,,,,,,,,,,
11/07/2016 21:00,657,,,,,,,,,,,,,,,,,
11/07/2016 22:00,646,,,,,,,,,,,,,,,,,
11/07/2016 23:00,616,,,,,,,,,,,,,,,,,
11/08/2016 0:00,561,,,,,,,,,,,,,,,,,
11/08/2016 1:00,540,,,,,,,,,,,,,,,,,
11/08/2016 2:00,539,,,,,,,,,,,,,,,,,
11/08/2016 3:00,503,,,,,,,,,,,,,,,,,
11/08/2016 4:00,460,,,,,,,,,,,,,,,,,
11/08/2016 5:00,498,,,,,,,,,,,,,,,,,
11/08/2016 6:00,506,,,,,,,,,,,,,,,,,
11/08/2016 7:00,541,,,,,,,,,,,,,,,,,
11/08/2016 8:00,655,,,,,,,,,,,,,,,,,
11/08/2016 9:00,708,,,,,,,,,,,,,,,,,
11/08/2016 10:00,688,,,,,,,,,,,,,,,,,
11/08/2016 11:00,669,,,,,,,,,,,,,,,,,
11/08/2016 12:00,642,,,,,,,,,,,,,,,,,
11/08/2016 13:00,624,,,,,,,,,,,,,,,,,
11/08/2016 14:00,605,,,,,,,,,,,,,,,,,
11/08/2016 15:00,585,,,,,,,,,,,,,,,,,
11/08/2016 16:00,571,,,,,,,,,,,,,,,,,
11/08/2016 17:00,565,,,,,,,,,,,,,,,,,
11/08/2016 18:00,601,,,,,,,,,,,,,,,,,
11/08/2016 19:00,641,,,,,,,,,,,,,,,,,
11/08/2016 20:00,608,,,,,,,,,,,,,,,,,
11/08/2016 21:00,599,,,,,,,,,,,,,,,,,
11/08/2016 22:00,576,,,,,,,,,,,,,,,,,
11/08/2016 23:00,551,,,,,,,,,,,,,,,,,
11/09/2016 0:00,508,,,,,,,,,,,,,,,,,
11/09/2016 1:00,459,,,,,,,,,,,,,,,,,
11/09/2016 2:00,439,,,,,,,,,,,,,,,,,
11/09/2016 3:00,422,,,,,,,,,,,,,,,,,
11/09/2016 4:00,420,,,,,,,,,,,,,,,,,
11/09/2016 5:00,395,,,,,,,,,,,,,,,,,
11/09/2016 6:00,368,,,,,,,,,,,,,,,,,
11/09/2016 7:00,394,,,,,,,,,,,,,,,,,
11/09/2016 8:00,495,,,,,,,,,,,,,,,,,
11/09/2016 9:00,586,,,,,,,,,,,,,,,,,
11/09/2016 10:00,647,,,,,,,,,,,,,,,,,
11/09/2016 11:00,640,,,,,,,,,,,,,,,,,
11/09/2016 12:00,619,,,,,,,,,,,,,,,,,
11/09/2016 13:00,566,,,,,,,,,,,,,,,,,
11/09/2016 14:00,518,,,,,,,,,,,,,,,,,
11/09/2016 15:00,494,,,,,,,,,,,,,,,,,
11/09/2016 16:00,481,,,,,,,,,,,,,,,,,
11/09/2016 17:00,504,,,,,,,,,,,,,,,,,
11/09/2016 18:00,533,,,,,,,,,,,,,,,,,
11/09/2016 19:00,603,,,,,,,,,,,,,,,,,
11/09/2016 20:00,557,,,,,,,,,,,,,,,,,
11/09/2016 21:00,523,,,,,,,,,,,,,,,,,
11/09/2016 22:00,484,,,,,,,,,,,,,,,,,
11/09/2016 23:00,426,,,,,,,,,,,,,,,,,
11/10/2016 0:00,369,,,,,,,,,,,,,,,,,
11/10/2016 1:00,302,,,,,,,,,,,,,,,,,
11/10/2016 2:00,267,,,,,,,,,,,,,,,,,
11/10/2016 3:00,248,,,,,,,,,,,,,,,,,
11/10/2016 4:00,263,,,,,,,,,,,,,,,,,
11/10/2016 5:00,253,,,,,,,,,,,,,,,,,
11/10/2016 6:00,267,,,,,,,,,,,,,,,,,
11/10/2016 7:00,334,,,,,,,,,,,,,,,,,
11/10/2016 8:00,460,,,,,,,,,,,,,,,,,
11/10/2016 9:00,561,,,,,,,,,,,,,,,,,
11/10/2016 10:00,572,,,,,,,,,,,,,,,,,
11/10/2016 11:00,565,,,,,,,,,,,,,,,,,
11/10/2016 12:00,546,,,,,,,,,,,,,,,,,
11/10/2016 13:00,526,,,,,,,,,,,,,,,,,
11/10/2016 14:00,504,,,,,,,,,,,,,,,,,
11/10/2016 15:00,498,,,,,,,,,,,,,,,,,
11/10/2016 16:00,502,,,,,,,,,,,,,,,,,
11/10/2016 17:00,457,,,,,,,,,,,,,,,,,
11/10/2016 18:00,501,,,,,,,,,,,,,,,,,
11/10/2016 19:00,550,,,,,,,,,,,,,,,,,
11/10/2016 20:00,533,,,,,,,,,,,,,,,,,
11/10/2016 21:00,504,,,,,,,,,,,,,,,,,
11/10/2016 22:00,441,,,,,,,,,,,,,,,,,
11/10/2016 23:00,401,,,,,,,,,,,,,,,,,
11/11/2016 0:00,339,,,,,,,,,,,,,,,,,
11/11/2016 1:00,291,,,,,,,,,,,,,,,,,
11/11/2016 2:00,248,,,,,,,,,,,,,,,,,
11/11/2016 3:00,221,,,,,,,,,,,,,,,,,
11/11/2016 4:00,223,,,,,,,,,,,,,,,,,
11/11/2016 5:00,217,,,,,,,,,,,,,,,,,
11/11/2016 6:00,204,,,,,,,,,,,,,,,,,
11/11/2016 7:00,269,,,,,,,,,,,,,,,,,
11/11/2016 8:00,296,,,,,,,,,,,,,,,,,
11/11/2016 9:00,331,,,,,,,,,,,,,,,,,
11/11/2016 10:00,342,,,,,,,,,,,,,,,,,
11/11/2016 11:00,367,,,,,,,,,,,,,,,,,
11/11/2016 12:00,366,,,,,,,,,,,,,,,,,
11/11/2016 13:00,340,,,,,,,,,,,,,,,,,
11/11/2016 14:00,340,,,,,,,,,,,,,,,,,
11/11/2016 15:00,345,,,,,,,,,,,,,,,,,
11/11/2016 16:00,328,,,,,,,,,,,,,,,,,
11/11/2016 17:00,306,,,,,,,,,,,,,,,,,
11/11/2016 18:00,344,,,,,,,,,,,,,,,,,
11/11/2016 19:00,397,,,,,,,,,,,,,,,,,
11/11/2016 20:00,386,,,,,,,,,,,,,,,,,
11/11/2016 21:00,377,,,,,,,,,,,,,,,,,
11/11/2016 22:00,339,,,,,,,,,,,,,,,,,
11/11/2016 23:00,316,,,,,,,,,,,,,,,,,
11/12/2016 0:00,305,,,,,,,,,,,,,,,,,
11/12/2016 1:00,297,,,,,,,,,,,,,,,,,
11/12/2016 2:00,266,,,,,,,,,,,,,,,,,
11/12/2016 3:00,244,,,,,,,,,,,,,,,,,
11/12/2016 4:00,212,,,,,,,,,,,,,,,,,
11/12/2016 5:00,216,,,,,,,,,,,,,,,,,
11/12/2016 6:00,222,,,,,,,,,,,,,,,,,
11/12/2016 7:00,221,,,,,,,,,,,,,,,,,
11/12/2016 8:00,259,,,,,,,,,,,,,,,,,
11/12/2016 9:00,350,,,,,,,,,,,,,,,,,
11/12/2016 10:00,416,,,,,,,,,,,,,,,,,
11/12/2016 11:00,477,,,,,,,,,,,,,,,,,
11/12/2016 12:00,491,,,,,,,,,,,,,,,,,
11/12/2016 13:00,483,,,,,,,,,,,,,,,,,
11/12/2016 14:00,471,,,,,,,,,,,,,,,,,
11/12/2016 15:00,430,,,,,,,,,,,,,,,,,
11/12/2016 16:00,407,,,,,,,,,,,,,,,,,
11/12/2016 17:00,390,,,,,,,,,,,,,,,,,
11/12/2016 18:00,438,,,,,,,,,,,,,,,,,
11/12/2016 19:00,492,,,,,,,,,,,,,,,,,
11/12/2016 20:00,471,,,,,,,,,,,,,,,,,
11/12/2016 21:00,434,,,,,,,,,,,,,,,,,
11/12/2016 22:00,395,,,,,,,,,,,,,,,,,
11/12/2016 23:00,356,,,,,,,,,,,,,,,,,
11/13/2016 0:00,324,,,,,,,,,,,,,,,,,
11/13/2016 1:00,270,,,,,,,,,,,,,,,,,
11/13/2016 2:00,242,,,,,,,,,,,,,,,,,
11/13/2016 3:00,211,,,,,,,,,,,,,,,,,
11/13/2016 4:00,203,,,,,,,,,,,,,,,,,
11/13/2016 5:00,202,,,,,,,,,,,,,,,,,
11/13/2016 6:00,202,,,,,,,,,,,,,,,,,
11/13/2016 7:00,265,,,,,,,,,,,,,,,,,
11/13/2016 8:00,265,,,,,,,,,,,,,,,,,
11/13/2016 9:00,309,,,,,,,,,,,,,,,,,
11/13/2016 10:00,365,,,,,,,,,,,,,,,,,
11/13/2016 11:00,418,,,,,,,,,,,,,,,,,
11/13/2016 12:00,448,,,,,,,,,,,,,,,,,
11/13/2016 13:00,445,,,,,,,,,,,,,,,,,
11/13/2016 14:00,428,,,,,,,,,,,,,,,,,
11/13/2016 15:00,385,,,,,,,,,,,,,,,,,
11/13/2016 16:00,379,,,,,,,,,,,,,,,,,
11/13/2016 17:00,373,,,,,,,,,,,,,,,,,
11/13/2016 18:00,448,,,,,,,,,,,,,,,,,
11/13/2016 19:00,545,,,,,,,,,,,,,,,,,
11/13/2016 20:00,524,,,,,,,,,,,,,,,,,
11/13/2016 21:00,508,,,,,,,,,,,,,,,,,
11/13/2016 22:00,449,,,,,,,,,,,,,,,,,
11/13/2016 23:00,410,,,,,,,,,,,,,,,,,
11/14/2016 0:00,376,,,,,,,,,,,,,,,,,
11/14/2016 1:00,319,,,,,,,,,,,,,,,,,
11/14/2016 2:00,297,,,,,,,,,,,,,,,,,
11/14/2016 3:00,307,,,,,,,,,,,,,,,,,
11/14/2016 4:00,304,,,,,,,,,,,,,,,,,
11/14/2016 5:00,287,,,,,,,,,,,,,,,,,
11/14/2016 6:00,286,,,,,,,,,,,,,,,,,
11/14/2016 7:00,315,,,,,,,,,,,,,,,,,
11/14/2016 8:00,369,,,,,,,,,,,,,,,,,
11/14/2016 9:00,466,,,,,,,,,,,,,,,,,
11/14/2016 10:00,500,,,,,,,,,,,,,,,,,
11/14/2016 11:00,499,,,,,,,,,,,,,,,,,
11/14/2016 12:00,488,,,,,,,,,,,,,,,,,
11/14/2016 13:00,498,,,,,,,,,,,,,,,,,
11/14/2016 14:00,484,,,,,,,,,,,,,,,,,
11/14/2016 15:00,486,,,,,,,,,,,,,,,,,
11/14/2016 16:00,469,,,,,,,,,,,,,,,,,
11/14/2016 17:00,476,,,,,,,,,,,,,,,,,
11/14/2016 18:00,513,,,,,,,,,,,,,,,,,
11/14/2016 19:00,569,,,,,,,,,,,,,,,,,
11/14/2016 20:00,555,,,,,,,,,,,,,,,,,
11/14/2016 21:00,543,,,,,,,,,,,,,,,,,
11/14/2016 22:00,520,,,,,,,,,,,,,,,,,
11/14/2016 23:00,504,,,,,,,,,,,,,,,,,
11/15/2016 0:00,464,,,,,,,,,,,,,,,,,
11/15/2016 1:00,434,,,,,,,,,,,,,,,,,
11/15/2016 2:00,413,,,,,,,,,,,,,,,,,
11/15/2016 3:00,413,,,,,,,,,,,,,,,,,
11/15/2016 4:00,398,,,,,,,,,,,,,,,,,
11/15/2016 5:00,375,,,,,,,,,,,,,,,,,
11/15/2016 6:00,387,,,,,,,,,,,,,,,,,
11/15/2016 7:00,422,,,,,,,,,,,,,,,,,
11/15/2016 8:00,503,,,,,,,,,,,,,,,,,
11/15/2016 9:00,582,,,,,,,,,,,,,,,,,
11/15/2016 10:00,609,,,,,,,,,,,,,,,,,
11/15/2016 11:00,601,,,,,,,,,,,,,,,,,
11/15/2016 12:00,580,,,,,,,,,,,,,,,,,
11/15/2016 13:00,576,,,,,,,,,,,,,,,,,
11/15/2016 14:00,558,,,,,,,,,,,,,,,,,
11/15/2016 15:00,553,,,,,,,,,,,,,,,,,
11/15/2016 16:00,547,,,,,,,,,,,,,,,,,
11/15/2016 17:00,541,,,,,,,,,,,,,,,,,
11/15/2016 18:00,555,,,,,,,,,,,,,,,,,
11/15/2016 19:00,605,,,,,,,,,,,,,,,,,
11/15/2016 20:00,574,,,,,,,,,,,,,,,,,
11/15/2016 21:00,537,,,,,,,,,,,,,,,,,
11/15/2016 22:00,489,,,,,,,,,,,,,,,,,
11/15/2016 23:00,442,,,,,,,,,,,,,,,,,
11/16/2016 0:00,416,,,,,,,,,,,,,,,,,
11/16/2016 1:00,371,,,,,,,,,,,,,,,,,
11/16/2016 2:00,313,,,,,,,,,,,,,,,,,
11/16/2016 3:00,292,,,,,,,,,,,,,,,,,
11/16/2016 4:00,287,,,,,,,,,,,,,,,,,
11/16/2016 5:00,256,,,,,,,,,,,,,,,,,
11/16/2016 6:00,248,,,,,,,,,,,,,,,,,
11/16/2016 7:00,276,,,,,,,,,,,,,,,,,
11/16/2016 8:00,325,,,,,,,,,,,,,,,,,
11/16/2016 9:00,408,,,,,,,,,,,,,,,,,
11/16/2016 10:00,450,,,,,,,,,,,,,,,,,
11/16/2016 11:00,457,,,,,,,,,,,,,,,,,
11/16/2016 12:00,464,,,,,,,,,,,,,,,,,
11/16/2016 13:00,450,,,,,,,,,,,,,,,,,
11/16/2016 14:00,459,,,,,,,,,,,,,,,,,
11/16/2016 15:00,439,,,,,,,,,,,,,,,,,
11/16/2016 16:00,374,,,,,,,,,,,,,,,,,
11/16/2016 17:00,432,,,,,,,,,,,,,,,,,
11/16/2016 18:00,485,,,,,,,,,,,,,,,,,
11/16/2016 19:00,533,,,,,,,,,,,,,,,,,
11/16/2016 20:00,488,,,,,,,,,,,,,,,,,
11/16/2016 21:00,467,,,,,,,,,,,,,,,,,
11/16/2016 22:00,445,,,,,,,,,,,,,,,,,
11/16/2016 23:00,391,,,,,,,,,,,,,,,,,
11/17/2016 0:00,343,,,,,,,,,,,,,,,,,
11/17/2016 1:00,300,,,,,,,,,,,,,,,,,
11/17/2016 2:00,275,,,,,,,,,,,,,,,,,
11/17/2016 3:00,261,,,,,,,,,,,,,,,,,
11/17/2016 4:00,246,,,,,,,,,,,,,,,,,
11/17/2016 5:00,245,,,,,,,,,,,,,,,,,
11/17/2016 6:00,262,,,,,,,,,,,,,,,,,
11/17/2016 7:00,321,,,,,,,,,,,,,,,,,
11/17/2016 8:00,401,,,,,,,,,,,,,,,,,
11/17/2016 9:00,500,,,,,,,,,,,,,,,,,
11/17/2016 10:00,537,,,,,,,,,,,,,,,,,
11/17/2016 11:00,532,,,,,,,,,,,,,,,,,
11/17/2016 12:00,542,,,,,,,,,,,,,,,,,
11/17/2016 13:00,539,,,,,,,,,,,,,,,,,
11/17/2016 14:00,537,,,,,,,,,,,,,,,,,
11/17/2016 15:00,530,,,,,,,,,,,,,,,,,
11/17/2016 16:00,525,,,,,,,,,,,,,,,,,
11/17/2016 17:00,528,,,,,,,,,,,,,,,,,
11/17/2016 18:00,530,,,,,,,,,,,,,,,,,
11/17/2016 19:00,546,,,,,,,,,,,,,,,,,
11/17/2016 20:00,525,,,,,,,,,,,,,,,,,
11/17/2016 21:00,506,,,,,,,,,,,,,,,,,
11/17/2016 22:00,484,,,,,,,,,,,,,,,,,
11/17/2016 23:00,436,,,,,,,,,,,,,,,,,
11/18/2016 0:00,343,,,,,,,,,,,,,,,,,
11/18/2016 1:00,290,,,,,,,,,,,,,,,,,
11/18/2016 2:00,221,,,,,,,,,,,,,,,,,
11/18/2016 3:00,163,,,,,,,,,,,,,,,,,
11/18/2016 4:00,157,,,,,,,,,,,,,,,,,
11/18/2016 5:00,146,,,,,,,,,,,,,,,,,
11/18/2016 6:00,165,,,,,,,,,,,,,,,,,
11/18/2016 7:00,184,,,,,,,,,,,,,,,,,
11/18/2016 8:00,285,,,,,,,,,,,,,,,,,
11/18/2016 9:00,341,,,,,,,,,,,,,,,,,
11/18/2016 10:00,368,,,,,,,,,,,,,,,,,
11/18/2016 11:00,387,,,,,,,,,,,,,,,,,
11/18/2016 12:00,380,,,,,,,,,,,,,,,,,
11/18/2016 13:00,385,,,,,,,,,,,,,,,,,
11/18/2016 14:00,392,,,,,,,,,,,,,,,,,
11/18/2016 15:00,387,,,,,,,,,,,,,,,,,
11/18/2016 16:00,393,,,,,,,,,,,,,,,,,
11/18/2016 17:00,392,,,,,,,,,,,,,,,,,
11/18/2016 18:00,422,,,,,,,,,,,,,,,,,
11/18/2016 19:00,438,,,,,,,,,,,,,,,,,
11/18/2016 20:00,417,,,,,,,,,,,,,,,,,
11/18/2016 21:00,386,,,,,,,,,,,,,,,,,
11/18/2016 22:00,367,,,,,,,,,,,,,,,,,
11/18/2016 23:00,344,,,,,,,,,,,,,,,,,
11/19/2016 0:00,322,,,,,,,,,,,,,,,,,
11/19/2016 1:00,282,,,,,,,,,,,,,,,,,
11/19/2016 2:00,248,,,,,,,,,,,,,,,,,
11/19/2016 3:00,224,,,,,,,,,,,,,,,,,
11/19/2016 4:00,190,,,,,,,,,,,,,,,,,
11/19/2016 5:00,176,,,,,,,,,,,,,,,,,
11/19/2016 6:00,182,,,,,,,,,,,,,,,,,
11/19/2016 7:00,208,,,,,,,,,,,,,,,,,
11/19/2016 8:00,229,,,,,,,,,,,,,,,,,
11/19/2016 9:00,281,,,,,,,,,,,,,,,,,
11/19/2016 10:00,375,,,,,,,,,,,,,,,,,
11/19/2016 11:00,437,,,,,,,,,,,,,,,,,
11/19/2016 12:00,467,,,,,,,,,,,,,,,,,
11/19/2016 13:00,473,,,,,,,,,,,,,,,,,
11/19/2016 14:00,446,,,,,,,,,,,,,,,,,
11/19/2016 15:00,398,,,,,,,,,,,,,,,,,
11/19/2016 16:00,376,,,,,,,,,,,,,,,,,
11/19/2016 17:00,369,,,,,,,,,,,,,,,,,
11/19/2016 18:00,419,,,,,,,,,,,,,,,,,
11/19/2016 19:00,457,,,,,,,,,,,,,,,,,
11/19/2016 20:00,458,,,,,,,,,,,,,,,,,
11/19/2016 21:00,439,,,,,,,,,,,,,,,,,
11/19/2016 22:00,405,,,,,,,,,,,,,,,,,
11/19/2016 23:00,399,,,,,,,,,,,,,,,,,
11/20/2016 0:00,382,,,,,,,,,,,,,,,,,
11/20/2016 1:00,376,,,,,,,,,,,,,,,,,
11/20/2016 2:00,339,,,,,,,,,,,,,,,,,
11/20/2016 3:00,302,,,,,,,,,,,,,,,,,
11/20/2016 4:00,297,,,,,,,,,,,,,,,,,
11/20/2016 5:00,303,,,,,,,,,,,,,,,,,
11/20/2016 6:00,292,,,,,,,,,,,,,,,,,
11/20/2016 7:00,309,,,,,,,,,,,,,,,,,
11/20/2016 8:00,348,,,,,,,,,,,,,,,,,
11/20/2016 9:00,362,,,,,,,,,,,,,,,,,
11/20/2016 10:00,389,,,,,,,,,,,,,,,,,
11/20/2016 11:00,434,,,,,,,,,,,,,,,,,
11/20/2016 12:00,447,,,,,,,,,,,,,,,,,
11/20/2016 13:00,448,,,,,,,,,,,,,,,,,
11/20/2016 14:00,435,,,,,,,,,,,,,,,,,
11/20/2016 15:00,399,,,,,,,,,,,,,,,,,
11/20/2016 16:00,368,,,,,,,,,,,,,,,,,
11/20/2016 17:00,365,,,,,,,,,,,,,,,,,
11/20/2016 18:00,425,,,,,,,,,,,,,,,,,
11/20/2016 19:00,468,,,,,,,,,,,,,,,,,
11/20/2016 20:00,425,,,,,,,,,,,,,,,,,
11/20/2016 21:00,389,,,,,,,,,,,,,,,,,
11/20/2016 22:00,396,,,,,,,,,,,,,,,,,
11/20/2016 23:00,374,,,,,,,,,,,,,,,,,
11/21/2016 0:00,319,,,,,,,,,,,,,,,,,
11/21/2016 1:00,259,,,,,,,,,,,,,,,,,
11/21/2016 2:00,206,,,,,,,,,,,,,,,,,
11/21/2016 3:00,212,,,,,,,,,,,,,,,,,
11/21/2016 4:00,218,,,,,,,,,,,,,,,,,
11/21/2016 5:00,221,,,,,,,,,,,,,,,,,
11/21/2016 6:00,229,,,,,,,,,,,,,,,,,
11/21/2016 7:00,238,,,,,,,,,,,,,,,,,
11/21/2016 8:00,297,,,,,,,,,,,,,,,,,
11/21/2016 9:00,393,,,,,,,,,,,,,,,,,
11/21/2016 10:00,395,,,,,,,,,,,,,,,,,
11/21/2016 11:00,396,,,,,,,,,,,,,,,,,
11/21/2016 12:00,383,,,,,,,,,,,,,,,,,
11/21/2016 13:00,366,,,,,,,,,,,,,,,,,
11/21/2016 14:00,369,,,,,,,,,,,,,,,,,
11/21/2016 15:00,371,,,,,,,,,,,,,,,,,
11/21/2016 16:00,335,,,,,,,,,,,,,,,,,
11/21/2016 17:00,353,,,,,,,,,,,,,,,,,
11/21/2016 18:00,461,,,,,,,,,,,,,,,,,
11/21/2016 19:00,520,,,,,,,,,,,,,,,,,
11/21/2016 20:00,512,,,,,,,,,,,,,,,,,
11/21/2016 21:00,506,,,,,,,,,,,,,,,,,
11/21/2016 22:00,498,,,,,,,,,,,,,,,,,
11/21/2016 23:00,495,,,,,,,,,,,,,,,,,
11/22/2016 0:00,465,,,,,,,,,,,,,,,,,
11/22/2016 1:00,405,,,,,,,,,,,,,,,,,
11/22/2016 2:00,385,,,,,,,,,,,,,,,,,
11/22/2016 3:00,374,,,,,,,,,,,,,,,,,
11/22/2016 4:00,363,,,,,,,,,,,,,,,,,
11/22/2016 5:00,360,,,,,,,,,,,,,,,,,
11/22/2016 6:00,363,,,,,,,,,,,,,,,,,
11/22/2016 7:00,400,,,,,,,,,,,,,,,,,
11/22/2016 8:00,513,,,,,,,,,,,,,,,,,
11/22/2016 9:00,592,,,,,,,,,,,,,,,,,
11/22/2016 10:00,618,,,,,,,,,,,,,,,,,
11/22/2016 11:00,608,,,,,,,,,,,,,,,,,
11/22/2016 12:00,604,,,,,,,,,,,,,,,,,
11/22/2016 13:00,576,,,,,,,,,,,,,,,,,
11/22/2016 14:00,562,,,,,,,,,,,,,,,,,
11/22/2016 15:00,533,,,,,,,,,,,,,,,,,
11/22/2016 16:00,501,,,,,,,,,,,,,,,,,
11/22/2016 17:00,503,,,,,,,,,,,,,,,,,
11/22/2016 18:00,579,,,,,,,,,,,,,,,,,
11/22/2016 19:00,645,,,,,,,,,,,,,,,,,
11/22/2016 20:00,624,,,,,,,,,,,,,,,,,
11/22/2016 21:00,593,,,,,,,,,,,,,,,,,
11/22/2016 22:00,562,,,,,,,,,,,,,,,,,
11/22/2016 23:00,506,,,,,,,,,,,,,,,,,
11/23/2016 0:00,444,,,,,,,,,,,,,,,,,
11/23/2016 1:00,396,,,,,,,,,,,,,,,,,
11/23/2016 2:00,376,,,,,,,,,,,,,,,,,
11/23/2016 3:00,377,,,,,,,,,,,,,,,,,
11/23/2016 4:00,345,,,,,,,,,,,,,,,,,
11/23/2016 5:00,330,,,,,,,,,,,,,,,,,
11/23/2016 6:00,333,,,,,,,,,,,,,,,,,
11/23/2016 7:00,376,,,,,,,,,,,,,,,,,
11/23/2016 8:00,472,,,,,,,,,,,,,,,,,
11/23/2016 9:00,563,,,,,,,,,,,,,,,,,
11/23/2016 10:00,578,,,,,,,,,,,,,,,,,
11/23/2016 11:00,572,,,,,,,,,,,,,,,,,
11/23/2016 12:00,544,,,,,,,,,,,,,,,,,
11/23/2016 13:00,557,,,,,,,,,,,,,,,,,
11/23/2016 14:00,555,,,,,,,,,,,,,,,,,
11/23/2016 15:00,532,,,,,,,,,,,,,,,,,
11/23/2016 16:00,531,,,,,,,,,,,,,,,,,
11/23/2016 17:00,537,,,,,,,,,,,,,,,,,
11/23/2016 18:00,591,,,,,,,,,,,,,,,,,
11/23/2016 19:00,675,,,,,,,,,,,,,,,,,
11/23/2016 20:00,647,,,,,,,,,,,,,,,,,
11/23/2016 21:00,604,,,,,,,,,,,,,,,,,
11/23/2016 22:00,567,,,,,,,,,,,,,,,,,
11/23/2016 23:00,507,,,,,,,,,,,,,,,,,
11/24/2016 0:00,463,,,,,,,,,,,,,,,,,
11/24/2016 1:00,462,,,,,,,,,,,,,,,,,
11/24/2016 2:00,416,,,,,,,,,,,,,,,,,
11/24/2016 3:00,426,,,,,,,,,,,,,,,,,
11/24/2016 4:00,416,,,,,,,,,,,,,,,,,
11/24/2016 5:00,422,,,,,,,,,,,,,,,,,
11/24/2016 6:00,437,,,,,,,,,,,,,,,,,
11/24/2016 7:00,461,,,,,,,,,,,,,,,,,
11/24/2016 8:00,560,,,,,,,,,,,,,,,,,
11/24/2016 9:00,617,,,,,,,,,,,,,,,,,
11/24/2016 10:00,641,,,,,,,,,,,,,,,,,
11/24/2016 11:00,647,,,,,,,,,,,,,,,,,
11/24/2016 12:00,647,,,,,,,,,,,,,,,,,
11/24/2016 13:00,637,,,,,,,,,,,,,,,,,
11/24/2016 14:00,621,,,,,,,,,,,,,,,,,
11/24/2016 15:00,603,,,,,,,,,,,,,,,,,
11/24/2016 16:00,585,,,,,,,,,,,,,,,,,
11/24/2016 17:00,602,,,,,,,,,,,,,,,,,
11/24/2016 18:00,670,,,,,,,,,,,,,,,,,
11/24/2016 19:00,707,,,,,,,,,,,,,,,,,
11/24/2016 20:00,674,,,,,,,,,,,,,,,,,
11/24/2016 21:00,663,,,,,,,,,,,,,,,,,
11/24/2016 22:00,643,,,,,,,,,,,,,,,,,
11/24/2016 23:00,612,,,,,,,,,,,,,,,,,
11/25/2016 0:00,583,,,,,,,,,,,,,,,,,
11/25/2016 1:00,560,,,,,,,,,,,,,,,,,
11/25/2016 2:00,508,,,,,,,,,,,,,,,,,
11/25/2016 3:00,465,,,,,,,,,,,,,,,,,
11/25/2016 4:00,484,,,,,,,,,,,,,,,,,
11/25/2016 5:00,487,,,,,,,,,,,,,,,,,
11/25/2016 6:00,472,,,,,,,,,,,,,,,,,
11/25/2016 7:00,508,,,,,,,,,,,,,,,,,
11/25/2016 8:00,597,,,,,,,,,,,,,,,,,
11/25/2016 9:00,679,,,,,,,,,,,,,,,,,
11/25/2016 10:00,698,,,,,,,,,,,,,,,,,
11/25/2016 11:00,694,,,,,,,,,,,,,,,,,
11/25/2016 12:00,685,,,,,,,,,,,,,,,,,
11/25/2016 13:00,672,,,,,,,,,,,,,,,,,
11/25/2016 14:00,631,,,,,,,,,,,,,,,,,
11/25/2016 15:00,642,,,,,,,,,,,,,,,,,
11/25/2016 16:00,645,,,,,,,,,,,,,,,,,
11/25/2016 17:00,661,,,,,,,,,,,,,,,,,
11/25/2016 18:00,679,,,,,,,,,,,,,,,,,
11/25/2016 19:00,725,,,,,,,,,,,,,,,,,
11/25/2016 20:00,692,,,,,,,,,,,,,,,,,
11/25/2016 21:00,662,,,,,,,,,,,,,,,,,
11/25/2016 22:00,623,,,,,,,,,,,,,,,,,
11/25/2016 23:00,601,,,,,,,,,,,,,,,,,
11/26/2016 0:00,556,,,,,,,,,,,,,,,,,
11/26/2016 1:00,522,,,,,,,,,,,,,,,,,
11/26/2016 2:00,514,,,,,,,,,,,,,,,,,
11/26/2016 3:00,497,,,,,,,,,,,,,,,,,
11/26/2016 4:00,487,,,,,,,,,,,,,,,,,
11/26/2016 5:00,471,,,,,,,,,,,,,,,,,
11/26/2016 6:00,474,,,,,,,,,,,,,,,,,
11/26/2016 7:00,458,,,,,,,,,,,,,,,,,
11/26/2016 8:00,482,,,,,,,,,,,,,,,,,
11/26/2016 9:00,522,,,,,,,,,,,,,,,,,
11/26/2016 10:00,558,,,,,,,,,,,,,,,,,
11/26/2016 11:00,566,,,,,,,,,,,,,,,,,
11/26/2016 12:00,567,,,,,,,,,,,,,,,,,
11/26/2016 13:00,583,,,,,,,,,,,,,,,,,
11/26/2016 14:00,580,,,,,,,,,,,,,,,,,
11/26/2016 15:00,548,,,,,,,,,,,,,,,,,
11/26/2016 16:00,532,,,,,,,,,,,,,,,,,
11/26/2016 17:00,544,,,,,,,,,,,,,,,,,
11/26/2016 18:00,578,,,,,,,,,,,,,,,,,
11/26/2016 19:00,631,,,,,,,,,,,,,,,,,
11/26/2016 20:00,613,,,,,,,,,,,,,,,,,
11/26/2016 21:00,600,,,,,,,,,,,,,,,,,